Simultaneous Nadir Overpasses (SNOs) Predictions

Prediction of SNOs between METOP-A and NOAA-19 Satellite Orbit:

Table of predicted SNOs for the next 14.0 days since TLE Epoch: 12/15/2014
Index Date (METOP-A) Time (METOP-A) Lat,Lon (METOP-A) SZA (METOP-A ) Date (NOAA-19) Time (NOAA-19) Lat,Lon (NOAA-19) SZA (NOAA-19 ) Distance(km) Time Diff (sec)
1 12/21/2014 03:59:54 74.51, 116.02 97.88 12/21/2014 03:58:39 74.53, 115.98 97.91 2.04 75
2 12/21/2014 04:50:36 -74.51, -76.66 82.12 12/21/2014 04:49:44 -74.52, -76.77 82.11 3.38 52
3 12/21/2014 05:41:16 74.49, 90.62 97.86 12/21/2014 05:40:41 74.47, 90.62 97.85 1.89 35
4 12/21/2014 06:31:59 -74.44,-102.18 82.19 12/21/2014 06:31:46 -74.46,-102.13 82.16 3.14 13
5 12/21/2014 07:22:38 74.47, 65.23 97.84 12/21/2014 07:22:44 74.47, 65.12 97.84 3.07 6
6 12/21/2014 08:13:21 -74.42,-127.58 82.21 12/21/2014 08:13:48 -74.41,-127.50 82.22 2.49 27
7 12/21/2014 09:04:01 74.40, 39.70 97.78 12/21/2014 09:04:46 74.41, 39.76 97.79 2.40 45
8 12/21/2014 09:54:43 -74.40,-152.97 82.23 12/21/2014 09:55:51 -74.41,-152.99 82.22 1.19 68
9 12/21/2014 10:45:32 73.93, 13.20 97.33 12/21/2014 10:46:40 73.97, 15.40 97.33 67.96 68




NCC Satellite Simultaneous Nadir Overpasses (SNOs) Prediction Service
